User: anonymous   Login
Location: Unspecified
(43.4354°N, 0.0000°E)
Time: 16:41:17
(UTC+00:00)
Language:

AO-73 - Orbit

View from above orbital plane
View from above orbital plane
View from above satellite
View from above satellite

Ground track
Ground track

The orbit data is extracted from the following two-line orbital elements,

1 39444U 13066AE  19197.99662746  .00000160  00000-0  26134-4 0  9993
2 39444  97.5597 211.8806 0056578 295.6957  63.8421 14.81945319304127
Epoch (UTC): 16 July 2019 23:55:08
Eccentricity: 0.0056578
inclination: 97.5597°
perigee height: 583 km
apogee height: 663 km
right ascension of ascending node: 211.8806°
argument of perigee: 295.6957°
revolutions per day: 14.81945319
mean anomaly at epoch: 63.8421°
orbit number at epoch: 30412

The dashed part of the orbit path shows where the satellite is in the earth's shadow,  

DLR